Вернуться в каталог

INTELSAT 601

АктивенСвязьGEO
NORAD 21765·PAYLOAD· XX

Запущен Oct 29, 1991 с Guiana Space Centre

Loading…

TLE

СвежийSource: Space-Track

Эпоха: Sep 13, 2026, 23:55 UTC

1 21765U 91075A   26256.99686484 -.00000043  00000-0  00000-0 0  9996
2 21765  13.4771  16.2644 0001774 274.3651  76.3106  0.99593694127250

Отслеживайте INTELSAT 601 в реальном времени с AllMySat

Download on the App Store